Location: ?astrovice
(49.6513°N, 14.9287°E)
Time: 14:43:56
(UTC+00:00)

FO-99 - Pass Details

Date: 23 October 2021
Orbit: 469 x 501 km, 97.2° (Epoch: 30 November)

Event Time Altitude Azimuth Distance (km) Brightness Sun altitude
Exits shadow 17:15:54 11° 35° (NE) 1,677 ? -13.9°
Drops below altitude 10° 17:16:08 10° 32° (NNE) 1,720 ? -13.9°
Sets 17:19:09 0° 4° (N) 2,614 ? -14.4°
